period_start,C,m1,H,J0,J1,J2,J3,J4,J5,JA,JB,JC,JD,JJ,JK,JN,#
2014-04-28 00:00:01,-0.02,0.50,0.00,13.94,21.14,23.07,6.13,31.00,998.06,2062.39,3269.00,3237.08,3494.07,350.38,328.36,9.77,0000 0000 0000 0000 000000
2014-04-28 00:01:02,-0.11,0.50,0.00,13.97,21.14,23.05,6.20,31.33,998.06,2062.28,3268.88,3237.03,3494.03,349.61,327.70,9.77,0000 0000 0000 0000 000000
2014-04-28 00:02:02,-0.05,0.50,0.00,13.95,21.14,23.03,6.24,31.42,998.06,2062.15,3268.43,3237.01,3493.99,350.88,328.90,9.78,0000 0000 0000 0000 000000
2014-04-28 00:03:02,-0.01,0.50,0.00,13.99,21.15,23.03,6.09,31.13,998.06,2062.15,3268.16,3237.00,3493.96,350.29,328.16,9.78,0000 0000 0000 0000 000000
2014-04-28 00:04:02,0.05,0.50,0.00,14.04,21.16,23.07,6.16,31.04,998.06,2062.14,3268.07,3236.99,3493.92,350.42,328.37,9.79,0000 0000 0000 0000 000000
2014-04-28 00:05:03,-0.01,0.50,0.00,14.10,21.17,23.09,6.19,30.96,998.06,2062.13,3268.02,3236.97,3493.78,350.08,328.01,9.80,0000 0000 0000 0000 000000
2014-04-28 00:06:03,0.02,0.50,0.00,14.14,21.17,23.09,5.97,31.25,998.06,2062.06,3268.00,3236.80,3493.39,349.08,327.00,9.80,0000 0000 0000 0000 000000
2014-04-28 00:07:03,0.05,0.50,0.00,14.16,21.17,23.11,6.13,31.29,998.06,2062.07,3267.98,3236.70,3493.22,349.97,327.81,9.81,0000 0000 0000 0000 000000
2014-04-28 00:08:03,0.04,0.50,0.00,14.17,21.17,23.13,6.00,31.17,998.06,2062.06,3267.85,3236.46,3493.11,349.37,327.24,9.81,0000 0000 0000 0000 000000
2014-04-28 00:09:03,0.10,0.50,0.00,14.16,21.19,23.11,6.16,31.21,998.06,2062.07,3267.54,3236.22,3493.04,350.54,328.34,9.82,0000 0000 0000 0000 000000
2014-04-28 00:10:03,0.08,0.50,0.00,14.14,21.19,23.22,6.25,31.25,998.06,2062.04,3267.23,3236.09,3493.01,351.13,328.92,9.83,0000 0000 0000 0000 000000
2014-04-28 00:11:04,0.05,0.50,0.00,14.05,21.19,23.15,6.00,31.33,998.06,2062.06,3267.08,3236.03,3492.99,348.78,326.81,9.83,0000 0000 0000 0000 000000
2014-04-28 00:12:04,0.06,0.50,0.00,13.99,21.19,23.14,6.00,31.17,998.06,2062.05,3267.01,3236.01,3492.98,349.30,327.37,9.84,0000 0000 0000 0000 000000
2014-04-28 00:13:04,0.00,0.50,0.00,13.97,21.20,23.14,6.08,31.33,998.06,2062.05,3266.99,3236.00,3492.87,348.76,327.00,9.84,0000 0000 0000 0000 000000
2014-04-28 00:14:04,0.01,0.50,0.00,13.95,21.21,23.10,6.06,31.38,998.06,2062.03,3266.91,3235.97,3492.57,349.56,327.87,9.85,0000 0000 0000 0000 000000
2014-04-28 00:15:04,0.06,0.50,0.00,13.97,21.22,23.05,6.08,31.13,998.06,2062.03,3266.56,3235.92,3492.28,349.88,327.95,9.85,0000 0000 0000 0000 000000
2014-04-28 00:16:05,0.10,0.50,0.00,13.99,21.22,22.97,6.17,30.96,998.06,2062.03,3266.22,3235.85,3492.11,350.12,328.28,9.86,0000 0000 0000 0000 000000
2014-04-28 00:17:05,0.07,0.50,0.00,14.00,21.22,22.98,6.02,31.08,998.06,2062.04,3266.08,3235.54,3492.04,349.16,327.24,9.87,0000 0000 0000 0000 000000
2014-04-28 00:18:05,0.10,0.50,0.00,14.03,21.22,22.95,6.24,31.29,998.06,2062.02,3266.02,3235.23,3492.01,349.39,327.36,9.87,0000 0000 0000 0000 000000
2014-04-28 00:19:05,0.04,0.50,0.00,14.11,21.24,23.00,6.09,31.04,998.06,2062.03,3265.98,3235.10,3491.99,349.68,327.82,9.88,0000 0000 0000 0000 000000
2014-04-28 00:20:06,0.04,0.50,0.00,14.18,21.24,23.10,6.24,31.29,998.06,2062.02,3265.79,3235.04,3491.91,351.43,328.93,9.88,0000 0000 0000 0000 000000
2014-04-28 00:21:06,0.04,0.51,0.00,14.23,21.24,23.16,6.06,31.29,998.06,2062.01,3265.38,3235.01,3491.65,348.97,326.64,9.89,0000 0000 0000 0000 000000
2014-04-28 00:22:06,0.08,0.51,0.00,14.24,21.25,23.20,6.20,31.29,998.06,2062.00,3265.14,3235.00,3491.44,350.79,328.25,9.90,0000 0000 0000 0000 000000
2014-04-28 00:23:06,0.05,0.51,0.00,14.26,21.26,23.22,6.15,31.17,998.06,2062.01,3265.05,3234.99,3491.20,350.17,327.88,9.90,0000 0000 0000 0000 000000
2014-04-28 00:24:07,0.04,0.51,0.00,14.24,21.27,23.25,6.06,31.50,998.06,2062.00,3265.01,3234.84,3491.07,348.85,326.66,9.91,0000 0000 0000 0000 000000
2014-04-28 00:25:07,0.06,0.51,0.00,14.23,21.27,23.30,6.20,31.67,998.06,2062.00,3264.94,3234.48,3491.02,350.08,327.83,9.91,0000 0000 0000 0000 000000
2014-04-28 00:26:07,0.09,0.51,0.00,14.15,21.27,23.20,6.12,31.58,998.06,2062.00,3264.63,3234.19,3491.00,349.97,327.82,9.92,0000 0000 0000 0000 000000
2014-04-28 00:27:08,0.10,0.51,0.00,14.11,21.27,23.18,6.16,31.33,998.06,2062.00,3264.28,3234.07,3490.92,351.03,328.86,9.93,0000 0000 0000 0000 000000
2014-04-28 00:28:08,0.08,0.51,0.00,14.06,21.29,23.18,6.02,31.38,998.06,2062.00,3264.11,3234.02,3490.64,347.89,326.13,9.93,0000 0000 0000 0000 000000
2014-04-28 00:29:08,0.06,0.51,0.00,14.06,21.29,23.24,6.10,31.17,998.06,2062.00,3264.05,3234.00,3490.39,350.64,328.57,9.94,0000 0000 0000 0000 000000
2014-04-28 00:30:08,0.04,0.51,0.00,14.08,21.29,23.25,6.23,31.38,998.06,2062.00,3264.01,3233.99,3490.17,349.83,327.78,9.94,0000 0000 0000 0000 000000
2014-04-28 00:31:08,0.03,0.51,0.00,14.11,21.29,23.24,6.30,31.17,998.05,2061.99,3263.96,3233.93,3490.07,352.38,330.12,9.95,0000 0000 0000 0000 000000
2014-04-28 00:32:09,0.01,0.51,0.00,14.14,21.30,23.25,6.20,31.29,998.06,2061.99,3263.61,3233.73,3490.02,350.17,328.03,9.95,0000 0000 0000 0000 000000
2014-04-28 00:33:09,0.11,0.51,0.00,14.17,21.31,23.24,6.04,31.25,998.06,2061.99,3263.28,3233.45,3490.00,348.69,326.60,9.96,0000 0000 0000 0000 000000
2014-04-28 00:34:09,0.11,0.51,0.00,14.22,21.32,23.28,6.20,31.54,998.06,2061.98,3263.11,3233.32,3489.99,348.89,326.73,9.97,0000 0000 0000 0000 000000
2014-04-28 00:35:09,0.03,0.51,0.00,14.25,21.32,23.34,6.12,31.13,998.06,2061.98,3263.04,3233.14,3489.79,349.46,327.41,9.97,0000 0000 0000 0000 000000
2014-04-28 00:36:09,0.08,0.51,0.00,14.28,21.32,23.35,6.18,31.21,998.06,2061.97,3263.01,3233.05,3489.36,350.20,328.11,9.98,0000 0000 0000 0000 000000
2014-04-28 00:37:10,0.06,0.51,0.00,14.29,21.34,23.37,6.26,31.21,998.06,2061.99,3262.99,3233.01,3489.15,351.78,329.35,9.98,0000 0000 0000 0000 000000
2014-04-28 00:38:10,0.04,0.51,0.00,14.31,21.34,23.39,6.11,31.00,998.06,2061.99,3262.96,3233.00,3489.06,351.30,328.89,9.99,0000 0000 0000 0000 000000
2014-04-28 00:39:10,0.01,0.51,0.00,14.33,21.34,23.43,6.18,31.33,998.06,2061.98,3262.65,3232.98,3489.02,349.66,327.33,10.00,0000 0000 0000 0000 000000
2014-04-28 00:40:10,0.04,0.51,0.00,14.38,21.35,23.36,5.96,31.13,998.06,2061.98,3262.28,3232.87,3489.00,350.47,327.55,10.00,0000 0000 0000 0000 000000
2014-04-28 00:41:11,0.07,0.51,0.00,14.34,21.36,23.33,6.19,31.50,998.06,2061.98,3262.10,3232.52,3488.95,349.34,327.17,10.01,0000 0000 0000 0000 000000
2014-04-28 00:42:11,0.11,0.51,0.00,14.27,21.37,23.29,6.08,31.17,998.06,2061.97,3262.04,3232.22,3488.71,350.34,328.09,10.01,0000 0000 0000 0000 000000
2014-04-28 00:43:11,0.09,0.51,0.00,14.22,21.37,23.33,6.10,31.29,998.06,2061.96,3261.99,3232.09,3488.31,349.33,327.14,10.02,0000 0000 0000 0000 000000
2014-04-28 00:44:12,0.08,0.51,0.00,14.19,21.37,23.31,6.02,31.08,998.06,2061.99,3261.65,3232.03,3488.11,350.39,328.17,10.02,0000 0000 0000 0000 000000
2014-04-28 00:45:12,0.09,0.52,0.00,14.21,21.38,23.36,6.04,31.50,998.06,2061.99,3261.29,3232.00,3488.04,348.27,326.17,10.03,0000 0000 0000 0000 000000
2014-04-28 00:46:12,0.06,0.52,0.00,14.20,21.39,23.32,6.08,31.42,998.06,2061.97,3261.10,3231.99,3488.01,350.27,328.04,10.04,0000 0000 0000 0000 000000
2014-04-28 00:47:12,0.00,0.52,0.00,14.19,21.39,23.29,6.08,31.38,998.06,2061.96,3261.03,3231.95,3487.97,349.41,327.26,10.04,0000 0000 0000 0000 000000
2014-04-28 00:48:13,0.03,0.52,0.00,14.23,21.39,23.33,6.12,31.21,998.06,2061.94,3260.97,3231.61,3487.72,349.97,327.73,10.05,0000 0000 0000 0000 000000
2014-04-28 00:49:13,0.11,0.52,0.00,14.31,21.40,23.40,6.25,31.46,998.06,2061.91,3260.63,3231.25,3487.32,350.56,328.19,10.05,0000 0000 0000 0000 000000
2014-04-28 00:50:13,0.15,0.52,0.00,14.39,21.42,23.47,6.08,31.33,998.05,2061.84,3260.25,3231.12,3487.12,350.43,327.98,10.06,0000 0000 0000 0000 000000
2014-04-28 00:51:13,0.05,0.52,0.00,14.43,21.42,23.53,6.10,30.96,998.06,2061.84,3260.08,3231.05,3487.04,350.07,327.44,10.07,0000 0000 0000 0000 000000
2014-04-28 00:52:14,0.01,0.52,0.00,14.45,21.42,23.47,6.12,31.04,998.06,2061.81,3260.03,3231.01,3487.01,350.29,327.42,10.07,0000 0000 0000 0000 000000
2014-04-28 00:53:14,-0.01,0.52,0.00,14.48,21.42,23.51,5.98,31.08,998.06,2061.80,3259.99,3230.99,3486.95,349.54,327.36,10.08,0000 0000 0000 0000 000000
2014-04-28 00:54:14,0.03,0.52,0.00,14.50,21.43,23.48,6.14,31.33,998.06,2061.70,3259.80,3230.93,3486.78,350.30,327.97,10.08,0000 0000 0000 0000 000000
2014-04-28 00:55:14,-0.02,0.52,0.00,14.46,21.44,23.51,6.20,31.21,998.06,2061.65,3259.43,3230.73,3486.43,349.82,327.74,10.09,0000 0000 0000 0000 000000
2014-04-28 00:56:15,0.12,0.52,0.00,14.46,21.44,23.50,6.06,31.17,998.05,2061.66,3259.17,3230.41,3486.18,349.71,327.56,10.09,0000 0000 0000 0000 000000
2014-04-28 00:57:15,0.14,0.52,0.00,14.37,21.44,23.40,6.17,31.25,998.05,2061.61,3259.06,3230.17,3486.07,350.44,328.00,10.10,0000 0000 0000 0000 000000
2014-04-28 00:58:15,0.00,0.52,0.00,14.30,21.46,23.37,6.06,31.54,998.04,2061.58,3259.01,3230.08,3486.02,348.42,326.20,10.11,0000 0000 0000 0000 000000
2014-04-28 00:59:15,-0.01,0.52,0.00,14.26,21.47,23.36,6.07,31.13,998.05,2061.42,3258.67,3230.03,3486.00,349.00,326.78,10.11,0000 0000 0000 0000 000000
2014-04-28 01:00:16,-0.02,0.52,0.00,14.29,21.47,23.39,5.97,31.04,998.04,2061.40,3258.26,3230.00,3485.91,349.18,327.04,10.12,0000 0000 0000 0000 000000
2014-04-28 01:01:16,0.04,0.52,0.00,14.30,21.47,23.41,6.11,31.25,998.03,2061.41,3258.09,3229.92,3485.51,351.08,328.69,10.12,0000 0000 0000 0000 000000
2014-04-28 01:02:16,0.10,0.52,0.00,14.31,21.48,23.34,6.13,30.92,998.02,2061.23,3257.84,3229.46,3485.20,350.58,328.58,10.13,0000 0000 0000 0000 000000
2014-04-28 01:03:17,0.03,0.52,0.00,14.30,21.49,23.33,6.05,31.38,998.04,2061.11,3257.36,3229.16,3485.07,350.06,327.73,10.14,0000 0000 0000 0000 000000
2014-04-28 01:04:17,0.07,0.52,0.00,14.37,21.49,23.38,6.20,31.25,998.04,2061.07,3257.13,3229.06,3484.92,350.89,328.43,10.14,0000 0000 0000 0000 000000
2014-04-28 01:05:17,0.04,0.52,0.00,14.45,21.49,23.46,6.13,31.08,998.04,2061.05,3257.03,3229.00,3484.51,349.46,327.00,10.15,0000 0000 0000 0000 000000
2014-04-28 01:06:17,0.05,0.52,0.00,14.52,21.50,23.55,6.07,31.33,998.03,2061.05,3256.74,3228.77,3484.19,350.43,327.82,10.15,0000 0000 0000 0000 000000
2014-04-28 01:07:18,0.13,0.52,0.00,14.53,21.52,23.53,6.11,30.92,998.04,2061.05,3256.29,3228.39,3484.06,350.60,327.97,10.16,0000 0000 0000 0000 000000
2014-04-28 01:08:18,0.15,0.52,0.00,14.53,21.52,23.56,6.07,31.29,998.04,2061.03,3256.11,3228.15,3484.00,349.51,326.95,10.16,0000 0000 0000 0000 000000
2014-04-28 01:09:18,0.07,0.52,0.00,14.58,21.52,23.68,6.15,31.04,998.05,2061.01,3255.99,3228.05,3483.75,350.75,327.67,10.17,0000 0000 0000 0000 000000
2014-04-28 01:10:18,0.06,0.52,0.00,14.58,21.52,23.66,6.14,31.13,998.06,2061.01,3255.57,3227.99,3483.31,349.91,327.28,10.18,0000 0000 0000 0000 000000
2014-04-28 01:11:19,0.13,0.52,0.00,14.60,21.54,23.77,5.98,31.08,998.06,2061.00,3255.21,3227.70,3483.11,349.44,326.82,10.18,0000 0000 0000 0000 000000
2014-04-28 01:12:19,0.13,0.53,0.00,14.58,21.54,23.76,6.12,31.29,998.05,2061.00,3255.06,3227.29,3483.00,349.94,327.14,10.19,0000 0000 0000 0000 000000
2014-04-28 01:13:19,0.12,0.53,0.00,14.47,21.54,23.65,5.99,31.25,998.05,2061.00,3254.65,3227.10,3482.75,349.18,326.72,10.19,0000 0000 0000 0000 000000
2014-04-28 01:14:20,0.12,0.53,0.00,14.44,21.55,23.61,6.07,31.17,998.04,2061.00,3254.24,3227.03,3482.30,350.44,327.93,10.20,0000 0000 0000 0000 000000
2014-04-28 01:15:20,0.13,0.53,0.00,14.41,21.57,23.63,6.10,31.33,998.04,2061.00,3254.06,3226.96,3482.11,349.80,327.35,10.21,0000 0000 0000 0000 000000
2014-04-28 01:16:20,0.07,0.53,0.00,14.41,21.57,23.54,6.19,31.04,998.04,2061.00,3253.61,3226.60,3482.03,350.03,327.58,10.21,0000 0000 0000 0000 000000
2014-04-28 01:17:20,0.14,0.53,0.00,14.44,21.57,23.58,6.04,31.25,998.05,2061.00,3253.23,3226.26,3481.90,349.10,326.72,10.22,0000 0000 0000 0000 000000
2014-04-28 01:18:21,0.14,0.53,0.00,14.46,21.57,23.55,6.26,31.29,998.03,2061.00,3253.06,3226.09,3481.44,349.63,327.24,10.22,0000 0000 0000 0000 000000
2014-04-28 01:19:21,0.11,0.53,0.00,14.45,21.59,23.49,6.25,31.33,998.03,2061.00,3252.72,3226.01,3481.16,349.24,326.60,10.23,0000 0000 0000 0000 000000
2014-04-28 01:20:21,0.09,0.53,0.00,14.47,21.59,23.50,6.10,31.33,998.02,2061.00,3252.28,3225.75,3481.05,349.17,326.69,10.24,0000 0000 0000 0000 000000
2014-04-28 01:21:22,0.13,0.53,0.00,14.53,21.59,23.52,6.02,31.38,998.01,2061.00,3252.07,3225.33,3480.91,349.30,326.76,10.24,0000 0000 0000 0000 000000
2014-04-28 01:22:22,0.14,0.53,0.00,14.60,21.60,23.63,6.14,31.29,998.01,2060.99,3251.78,3225.14,3480.49,349.07,326.44,10.25,0000 0000 0000 0000 000000
2014-04-28 01:23:22,0.12,0.53,0.00,14.67,21.61,23.64,6.26,31.17,998.00,2060.97,3251.31,3225.05,3480.19,349.87,327.12,10.25,0000 0000 0000 0000 000000
2014-04-28 01:24:22,0.10,0.53,0.00,14.70,21.62,23.67,6.17,31.33,998.00,2060.97,3251.11,3224.94,3480.07,349.49,326.73,10.26,0000 0000 0000 0000 000000
2014-04-28 01:25:23,0.09,0.53,0.00,14.72,21.62,23.72,6.15,31.33,998.02,2060.98,3250.74,3224.48,3479.84,350.00,327.19,10.26,0000 0000 0000 0000 000000
2014-04-28 01:26:23,0.18,0.54,0.00,14.73,21.62,23.73,6.04,31.33,998.01,2060.99,3250.28,3224.17,3479.36,349.82,327.01,10.27,0000 0000 0000 0000 000000
2014-04-28 01:27:23,0.18,0.54,0.00,14.70,21.64,23.68,6.23,31.21,998.04,2060.99,3249.84,3224.02,3479.10,351.53,328.65,10.28,0000 0000 0000 0000 000000
2014-04-28 01:28:23,0.14,0.54,0.00,14.68,21.64,23.68,6.02,31.00,998.05,2060.98,3249.32,3223.58,3478.66,349.92,327.16,10.28,0000 0000 0000 0000 000000
2014-04-28 01:29:24,0.21,0.54,0.00,14.65,21.64,23.75,6.02,31.13,998.03,2060.98,3248.89,3223.20,3478.24,349.47,326.74,10.29,0000 0000 0000 0000 000000
2014-04-28 01:30:24,0.19,0.54,0.00,14.58,21.65,23.66,6.08,31.04,998.05,2060.97,3248.36,3223.02,3478.00,349.10,326.51,10.29,0000 0000 0000 0000 000000
2014-04-28 01:31:24,0.16,0.54,0.00,14.53,21.66,23.60,6.04,31.08,998.04,2060.97,3247.99,3222.57,3477.50,350.25,327.64,10.30,0000 0000 0000 0000 000000
2014-04-28 01:32:24,0.20,0.54,0.00,14.51,21.67,23.56,6.02,31.00,998.06,2060.95,3247.43,3222.20,3477.18,349.09,327.01,10.31,0000 0000 0000 0000 000000
2014-04-28 01:33:25,0.17,0.54,0.00,14.50,21.67,23.58,6.09,31.17,998.04,2060.95,3247.13,3222.05,3476.91,350.30,327.76,10.31,0000 0000 0000 0000 000000
2014-04-28 01:34:25,0.13,0.54,0.00,14.55,21.67,23.64,6.12,31.25,998.01,2060.95,3246.65,3221.63,3476.43,348.67,326.03,10.32,0000 0000 0000 0000 000000
2014-04-28 01:35:25,0.20,0.54,0.00,14.58,21.69,23.66,6.20,31.21,997.99,2060.95,3246.24,3221.26,3476.16,350.08,327.68,10.32,0000 0000 0000 0000 000000
2014-04-28 01:36:25,0.16,0.55,0.00,14.59,21.69,23.66,6.17,31.08,997.99,2060.95,3246.06,3221.09,3476.03,349.49,326.90,10.33,0000 0000 0000 0000 000000
2014-04-28 01:37:26,0.08,0.55,0.00,14.59,21.69,23.61,6.01,31.25,997.96,2060.84,3245.55,3221.00,3475.71,349.91,326.86,10.33,0000 0000 0000 0000 000000
2014-04-28 01:38:26,0.05,0.55,0.00,14.63,21.70,23.61,6.02,31.33,997.87,2060.77,3245.20,3220.67,3475.26,348.86,326.17,10.34,0000 0000 0000 0000 000000
2014-04-28 01:39:26,0.09,0.55,0.00,14.67,21.72,23.65,6.07,31.08,997.82,2060.74,3244.94,3220.26,3475.10,349.59,326.59,10.35,0000 0000 0000 0000 000000
2014-04-28 01:40:26,0.14,0.55,0.00,14.72,21.72,23.60,6.23,31.25,997.80,2060.66,3244.41,3220.08,3474.80,350.97,328.02,10.35,0000 0000 0000 0000 000000
2014-04-28 01:41:27,0.09,0.55,0.00,14.74,21.72,23.67,6.13,31.21,997.76,2060.53,3244.06,3219.78,3474.32,350.42,327.48,10.36,0000 0000 0000 0000 000000
2014-04-28 01:42:27,0.07,0.55,0.00,14.77,21.72,23.66,6.05,31.33,997.74,2060.33,3243.49,3219.31,3474.05,350.08,327.11,10.36,0000 0000 0000 0000 000000
2014-04-28 01:43:27,0.05,0.55,0.00,14.79,21.74,23.67,6.10,31.21,997.74,2060.22,3243.07,3219.07,3473.49,350.64,327.62,10.37,0000 0000 0000 0000 000000
2014-04-28 01:44:28,0.12,0.55,0.00,14.80,21.74,23.68,6.02,31.46,997.76,2060.16,3242.48,3218.69,3473.17,348.23,325.37,10.38,0000 0000 0000 0000 000000
2014-04-28 01:45:28,0.17,0.55,0.00,14.78,21.74,23.73,6.16,31.42,997.71,2060.20,3242.16,3218.26,3472.91,349.90,326.92,10.38,0000 0000 0000 0000 000000
2014-04-28 01:46:28,0.20,0.55,0.00,14.79,21.75,23.75,6.21,31.08,997.74,2060.21,3241.61,3218.08,3472.39,351.04,327.99,10.39,0000 0000 0000 0000 000000
2014-04-28 01:47:29,0.16,0.55,0.00,14.78,21.77,23.78,6.01,31.08,997.74,2060.15,3241.22,3217.78,3472.13,349.81,326.85,10.39,0000 0000 0000 0000 000000
2014-04-28 01:48:29,0.10,0.55,0.00,14.69,21.77,23.69,5.96,31.17,997.73,2060.08,3240.91,3217.34,3471.80,348.77,325.98,10.40,0000 0000 0000 0000 000000
2014-04-28 01:49:29,0.14,0.55,0.00,14.64,21.77,23.69,6.12,31.29,997.68,2060.05,3240.36,3217.11,3471.31,349.77,326.94,10.41,0000 0000 0000 0000 000000
2014-04-28 01:50:30,0.18,0.56,0.00,14.64,21.77,23.69,6.07,31.25,997.66,2060.06,3239.94,3216.71,3471.07,348.47,325.73,10.41,0000 0000 0000 0000 000000
2014-04-28 01:51:30,0.18,0.56,0.00,14.64,21.78,23.67,6.12,31.04,997.66,2060.05,3239.38,3216.28,3470.66,349.68,326.86,10.42,0000 0000 0000 0000 000000
2014-04-28 01:52:30,0.20,0.56,0.00,14.67,21.79,23.72,6.18,31.08,997.63,2060.05,3239.09,3216.09,3470.26,350.06,327.18,10.42,0000 0000 0000 0000 000000
2014-04-28 01:53:30,0.14,0.56,0.00,14.70,21.79,23.68,6.08,31.21,997.59,2060.04,3238.58,3215.88,3470.07,349.43,326.53,10.43,0000 0000 0000 0000 000000
2014-04-28 01:54:31,0.13,0.56,0.00,14.72,21.79,23.64,6.10,31.21,997.61,2060.02,3238.21,3215.39,3469.68,349.92,327.35,10.43,0000 0000 0000 0000 000000
2014-04-28 01:55:31,0.18,0.56,0.00,14.74,21.79,23.68,6.15,31.46,997.60,2060.00,3237.94,3215.14,3469.26,349.70,326.97,10.44,0000 0000 0000 0000 000000
2014-04-28 01:56:31,0.13,0.56,0.00,14.77,21.81,23.69,6.24,31.33,997.59,2060.00,3237.44,3215.03,3469.09,350.81,327.22,10.45,0000 0000 0000 0000 000000
2014-04-28 01:57:31,0.10,0.56,0.00,14.80,21.82,23.70,5.96,30.92,997.59,2060.00,3237.15,3214.94,3469.00,351.06,327.95,10.45,0000 0000 0000 0000 000000
2014-04-28 01:58:32,0.07,0.56,0.00,14.83,21.82,23.81,6.10,31.17,997.58,2060.00,3237.04,3214.65,3468.82,350.02,326.94,10.46,0000 0000 0000 0000 000000
2014-04-28 01:59:32,0.12,0.56,0.00,14.86,21.82,23.81,6.12,31.17,997.59,2060.00,3236.90,3214.28,3468.47,349.98,326.86,10.46,0000 0000 0000 0000 000000
2014-04-28 02:00:32,0.13,0.56,0.00,14.89,21.83,23.87,6.02,31.42,997.61,2060.00,3236.49,3214.12,3468.17,348.53,325.49,10.47,0000 0000 0000 0000 000000
2014-04-28 02:01:33,0.10,0.56,0.00,14.89,21.84,23.93,6.23,31.00,997.59,2060.00,3236.21,3214.04,3468.06,350.53,327.35,10.48,0000 0000 0000 0000 000000
2014-04-28 02:02:33,0.06,0.57,0.00,14.87,21.84,23.98,6.23,31.04,997.60,2060.01,3236.07,3214.01,3468.02,350.82,327.64,10.48,0000 0000 0000 0000 000000
2014-04-28 02:03:33,0.02,0.57,0.00,14.85,21.84,23.95,6.03,30.96,997.62,2060.00,3236.00,3213.99,3467.98,349.68,326.62,10.49,0000 0000 0000 0000 000000
2014-04-28 02:04:34,0.03,0.57,0.00,14.84,21.85,23.90,6.12,31.29,997.61,2060.00,3235.79,3213.94,3467.73,349.51,326.46,10.49,0000 0000 0000 0000 000000
2014-04-28 02:05:34,0.07,0.57,0.00,14.87,21.87,23.91,6.13,31.21,997.60,2060.00,3235.48,3213.68,3467.40,350.68,327.16,10.50,0000 0000 0000 0000 000000
2014-04-28 02:06:34,0.15,0.57,0.00,14.90,21.87,23.92,6.15,31.17,997.59,2060.00,3235.18,3213.26,3467.15,350.83,327.50,10.50,0000 0000 0000 0000 000000
2014-04-28 02:07:34,0.14,0.57,0.00,14.89,21.87,23.95,6.07,31.25,997.61,2060.00,3235.05,3213.09,3467.04,348.50,325.25,10.51,0000 0000 0000 0000 000000
2014-04-28 02:08:35,0.06,0.57,0.00,14.84,21.88,23.90,6.08,31.08,997.60,2060.00,3234.78,3213.02,3467.00,350.60,327.07,10.52,0000 0000 0000 0000 000000
2014-04-28 02:09:35,0.06,0.57,0.00,14.78,21.89,23.89,6.09,31.13,997.59,2060.00,3234.33,3213.00,3466.79,349.80,326.78,10.52,0000 0000 0000 0000 000000
2014-04-28 02:10:35,0.08,0.57,0.00,14.77,21.89,23.89,6.11,31.04,997.58,2059.99,3234.12,3212.79,3466.38,349.71,326.64,10.53,0000 0000 0000 0000 000000
2014-04-28 02:11:35,0.13,0.57,0.00,14.77,21.89,23.80,6.12,30.92,997.57,2059.99,3234.01,3212.33,3466.14,350.58,327.59,10.53,0000 0000 0000 0000 000000
2014-04-28 02:12:36,0.12,0.57,0.00,14.80,21.90,23.83,6.15,31.33,997.57,2059.97,3233.76,3212.12,3466.05,349.72,326.57,10.54,0000 0000 0000 0000 000000
2014-04-28 02:13:36,0.09,0.57,0.00,14.83,21.91,23.80,6.13,30.96,997.57,2059.99,3233.33,3212.04,3466.02,349.83,326.71,10.55,0000 0000 0000 0000 000000
2014-04-28 02:14:36,0.07,0.57,0.00,14.87,21.92,23.79,5.98,30.92,997.57,2059.99,3233.14,3212.01,3465.98,348.57,326.02,10.55,0000 0000 0000 0000 000000
2014-04-28 02:15:36,0.03,0.57,0.00,14.88,21.92,23.80,6.24,31.17,997.57,2059.96,3233.05,3212.00,3465.84,350.18,327.03,10.56,0000 0000 0000 0000 000000
2014-04-28 02:16:37,0.02,0.57,0.00,14.92,21.92,23.80,6.17,31.04,997.57,2059.98,3233.01,3211.99,3465.44,349.86,326.68,10.56,0000 0000 0000 0000 000000
2014-04-28 02:17:37,0.06,0.57,0.00,14.96,21.93,23.83,6.10,31.08,997.57,2059.99,3232.89,3211.88,3465.16,350.84,327.55,10.57,0000 0000 0000 0000 000000
2014-04-28 02:18:37,0.12,0.57,0.00,15.01,21.94,23.84,6.11,30.96,997.58,2059.99,3232.48,3211.43,3465.06,350.55,326.93,10.58,0000 0000 0000 0000 000000
2014-04-28 02:19:37,0.14,0.57,0.00,15.04,21.94,23.83,6.06,31.04,997.57,2059.97,3232.18,3211.15,3465.01,350.10,326.77,10.58,0000 0000 0000 0000 000000
2014-04-28 02:20:38,0.09,0.57,0.00,15.01,21.94,23.90,6.18,31.08,997.59,2059.97,3232.07,3211.05,3464.97,350.27,326.96,10.59,0000 0000 0000 0000 000000
2014-04-28 02:21:38,0.03,0.58,0.00,15.02,21.95,23.91,6.06,31.38,997.58,2059.95,3232.01,3211.02,3464.79,349.19,326.11,10.59,0000 0000 0000 0000 000000
2014-04-28 02:22:38,0.04,0.58,0.00,15.02,21.96,23.96,6.18,31.29,997.59,2059.96,3231.84,3211.00,3464.38,349.51,326.60,10.60,0000 0000 0000 0000 000000
2014-04-28 02:23:38,0.09,0.58,0.00,15.01,21.97,23.93,6.10,31.38,997.59,2059.95,3231.42,3210.99,3464.15,349.29,326.06,10.60,0000 0000 0000 0000 000000
2014-04-28 02:24:39,0.07,0.58,0.00,14.98,21.97,23.93,6.31,31.46,997.58,2059.86,3231.16,3210.82,3464.06,351.04,327.72,10.61,0000 0000 0000 0000 000000
2014-04-28 02:25:39,0.02,0.58,0.00,15.01,21.97,23.94,6.09,31.29,997.58,2059.82,3231.05,3210.48,3464.02,350.82,327.64,10.62,0000 0000 0000 0000 000000
2014-04-28 02:26:39,0.05,0.58,0.00,15.05,21.99,23.97,6.04,31.42,997.61,2059.73,3230.81,3210.19,3463.92,350.02,327.03,10.62,0000 0000 0000 0000 000000
2014-04-28 02:27:39,0.04,0.58,0.00,15.04,21.99,23.95,6.07,31.21,997.62,2059.68,3230.37,3210.07,3463.64,350.93,327.85,10.63,0000 0000 0000 0000 000000
2014-04-28 02:28:40,0.07,0.58,0.00,15.06,21.99,24.02,6.18,31.25,997.62,2059.72,3230.15,3210.02,3463.27,350.32,327.23,10.63,0000 0000 0000 0000 000000
2014-04-28 02:29:40,0.07,0.58,0.00,15.09,21.99,24.05,6.17,31.04,997.61,2059.57,3229.96,3209.84,3463.09,350.16,326.39,10.64,0000 0000 0000 0000 000000
2014-04-28 02:30:40,0.03,0.58,0.00,15.16,22.00,24.12,6.18,31.13,997.65,2059.40,3229.45,3209.38,3462.93,350.32,326.63,10.65,0000 0000 0000 0000 000000
2014-04-28 02:31:40,0.05,0.58,0.00,15.12,22.02,24.08,6.05,31.25,997.64,2059.28,3229.16,3209.14,3462.51,350.07,326.53,10.65,0000 0000 0000 0000 000000
2014-04-28 02:32:40,0.05,0.58,0.00,15.05,22.02,24.02,6.17,31.29,997.65,2059.19,3228.75,3209.05,3462.21,349.21,325.96,10.66,0000 0000 0000 0000 000000
2014-04-28 02:33:41,0.05,0.58,0.00,15.02,22.02,24.03,6.10,31.21,997.63,2059.16,3228.28,3208.95,3462.06,349.52,326.60,10.66,0000 0000 0000 0000 000000
2014-04-28 02:34:41,0.11,0.58,0.00,15.00,22.03,24.01,6.08,31.17,997.61,2059.22,3227.84,3208.51,3461.80,349.21,326.39,10.67,0000 0000 0000 0000 000000
2014-04-28 02:35:41,0.20,0.58,0.00,15.04,22.04,24.01,6.27,31.21,997.71,2059.14,3227.31,3208.18,3461.33,350.51,327.20,10.67,0000 0000 0000 0000 000000
2014-04-28 02:36:42,0.14,0.58,0.00,15.06,22.04,24.03,6.14,31.08,997.67,2059.07,3227.00,3208.06,3461.12,350.95,327.58,10.68,0000 0000 0000 0000 000000